CDT,Max TemperatureF,Mean TemperatureF,Min TemperatureF,Max Dew PointF,MeanDew PointF,Min DewpointF,Max Humidity, Mean Humidity, Min Humidity, Max Sea Level PressureIn, Mean Sea Level PressureIn, Min Sea Level PressureIn, Max VisibilityMiles, Mean VisibilityMiles, Min VisibilityMiles, Max Wind SpeedMPH, Mean Wind SpeedMPH, Max Gust SpeedMPH,PrecipitationIn, CloudCover, Events, WindDirDegrees
2013-6-1,79,73,66,73,68,64,93,86,79,29.95,29.90,29.82,10,8,2,31,8,46,0.78,7,Rain-Thunderstorm,197
2013-6-2,78,71,63,65,61,57,93,75,56,29.99,29.96,29.92,10,10,9,20,6,31,0.01,3,,331
2013-6-3,79,71,62,62,59,57,90,69,48,30.06,30.00,29.94,10,10,10,24,6,23,0.00,4,,47
2013-6-4,84,73,61,63,60,57,90,68,46,30.03,29.99,29.93,10,10,10,9,6,,0.00,1,,61
2013-6-5,89,79,68,72,67,63,93,72,50,29.95,29.87,29.79,10,9,2,16,4,23,0.20,3,Rain-Thunderstorm,32
2013-6-6,85,77,68,70,65,60,97,74,51,29.86,29.82,29.78,10,9,5,13,5,33,0.00,4,,340
2013-6-7,84,74,64,61,56,49,73,52,31,29.90,29.86,29.82,10,10,10,14,6,29,0.00,3,,341
2013-6-8,87,73,59,61,57,52,90,61,32,29.98,29.94,29.90,10,10,10,15,5,24,0.00,2,,183
2013-6-9,85,74,63,70,65,59,93,77,61,29.95,29.88,29.82,10,8,0,40,5,47,0.64,4,Fog-Rain-Thunderstorm,203
2013-6-10,95,80,64,71,65,62,93,65,36,29.89,29.87,29.84,10,10,10,20,9,25,0.01,1,,240
2013-6-11,100,86,72,73,71,68,90,64,37,30.00,29.95,29.91,10,10,10,17,7,22,0.00,0,,228
2013-6-12,98,87,75,73,71,68,87,65,42,30.02,29.94,29.87,10,10,10,24,13,31,0.00,0,,228
2013-6-13,94,82,69,72,68,63,79,59,38,29.96,29.92,29.88,10,10,10,17,9,25,0.00,1,,309
2013-6-14,93,80,67,66,60,52,93,61,28,30.05,30.00,29.96,10,10,10,12,4,46,0.00,0,,47
2013-6-15,93,79,64,67,62,60,93,65,36,30.07,30.01,29.94,10,10,10,14,3,25,0.00,0,,145
2013-6-16,93,83,72,69,67,66,90,67,44,30.02,29.97,29.92,10,10,10,15,4,32,0.00,0,,208
2013-6-17,89,79,68,73,71,66,94,76,57,29.95,29.91,29.84,10,7,0,21,6,31,2.03,6,Fog-Rain-Thunderstorm,167
2013-6-18,89,79,68,70,65,63,87,65,43,29.99,29.94,29.87,10,10,10,14,5,37,0.00,2,,13
2013-6-19,91,80,69,70,68,65,90,67,44,30.03,30.00,29.95,10,10,4,20,4,28,0.09,1,Rain-Thunderstorm,292
2013-6-20,93,81,69,72,68,65,97,71,44,30.12,30.07,30.03,10,10,7,13,3,23,0.00,0,,147
2013-6-21,96,83,69,72,69,66,97,69,40,30.14,30.09,30.04,10,9,2,15,6,18,0.00,1,,179
2013-6-22,95,84,73,72,69,66,87,64,41,30.12,30.06,29.99,10,10,10,16,6,23,0.00,1,,172
2013-6-23,94,82,70,71,69,66,90,67,44,30.08,30.03,29.97,10,10,10,15,5,25,0.00,0,,168
2013-6-24,97,85,72,73,70,66,93,68,43,30.10,30.04,29.98,10,10,10,16,7,23,0.00,0,,199
2013-6-25,96,87,77,74,71,66,85,64,42,30.04,29.97,29.88,10,10,10,20,11,25,0.00,0,,206
2013-6-26,97,88,78,73,71,68,79,61,42,29.93,29.88,29.82,10,10,10,24,14,31,0.00,0,,218
2013-6-27,101,88,75,77,73,69,87,66,45,29.91,29.87,29.81,10,10,3,20,7,28,0.13,1,Rain-Thunderstorm,260
2013-6-28,95,84,73,72,68,63,87,61,34,29.86,29.80,29.72,10,10,6,23,5,38,0.09,2,Rain-Thunderstorm,317
2013-6-29,92,82,71,65,60,54,79,54,28,29.77,29.73,29.68,10,10,10,16,7,24,0.00,1,,314
2013-6-30,84,75,66,65,62,60,87,66,44,29.86,29.80,29.73,10,10,10,17,7,25,0.02,4,,336